Location: Blanot
(47.1713°N, 4.2340°E)
Time: 03:23:22
(UTC+00:00)

SeaSat 1 - Pass Details

Date: 14 July 2020
Orbit: 744 x 747 km, 108.0° (Epoch: 06 August)

Event Time Altitude Azimuth Distance (km) Brightness Sun altitude
Rises 02:14:00 0° 26° (NNE) 3,202 7.6 -13.9°
Reaches altitude 10° 02:16:17 10° 23° (NNE) 2,274 6.3 -13.6°
Maximum altitude 02:21:10 64° 303° (WNW) 828 2.6 -13.1°
Enters shadow 02:24:47 18° 226° (SW) 1,772 3.8 -12.8°
